Change the Weather History Date:

Thursday, January 23, 2014

  Actual Average Record
Temperature  
Mean Temperature 42 °F -  
Max Temperature 57 °F 61 °F 77 °F (2002)
Min Temperature 28 °F 42 °F 20 °F (1984)
Degree Days  
Heating Degree Days 22    
Moisture  
Dew Point 25 °F    
Average Humidity 54    
Maximum Humidity 100    
Minimum Humidity 25    
Precipitation  
Precipitation 0.00 in - - ()
Sea Level Pressure  
Sea Level Pressure 30.38 in    
Wind  
Wind Speed 4 mph (NNE)    
Max Wind Speed 18 mph    
Max Gust Speed 30 mph    
Visibility 10 miles    
Events      
Averages and records for this station are not official NWS values.
T = Trace of Precipitation, MM = Missing Value Source: NWS Daily Summary

Daily Weather History Graph

Daily Weather History Graph

Search for Another Location

Airport or City:

Trip Planner

Search our weather history database for the weather conditions in past years. The results will help you decide how hot, cold, wet, or windy it might be!

Date:

Astronomy

Jan. 23, 2014 Rise Set
Actual Time 6:49 AM CST 5:22 PM CST
Civil Twilight 6:23 AM CST 5:48 PM CST
Nautical Twilight 5:54 AM CST 6:17 PM CST
Astronomical Twilight 5:26 AM CST 6:46 PM CST
Moon No Moon Rise 10:56 AM CST (1/23)
Length of Visible Light 11h 24m
Length of Day
10h 33m
Waning Gibbous, 55% of the Moon is Illuminated
Jan 23
Waning Gibbous
Jan 23
Last Quarter
Jan 30
New
Feb 6
First Quarter
Feb 14
Full

Hourly Weather History & Observations

Time (CST) Temp. Windchill Dew Point Humidity Pressure Visibility Wind Dir Wind Speed Gust Speed Precip Events Conditions
12:53 AM 34.0 °F - 33.1 °F 96% 30.23 in 10.0 mi Calm Calm - N/A   Clear
1:53 AM 34.0 °F - 32.0 °F 92% 30.24 in 10.0 mi Calm Calm - N/A   Clear
2:53 AM 32.0 °F - 30.0 °F 92% 30.27 in 10.0 mi Calm Calm - N/A   Clear
3:53 AM 30.0 °F - 28.9 °F 96% 30.27 in 10.0 mi Calm Calm - N/A   Clear
4:53 AM 28.9 °F - 28.9 °F 100% 30.29 in 10.0 mi Calm Calm - N/A   Clear
5:53 AM 33.1 °F - 30.9 °F 92% 30.32 in 10.0 mi Calm Calm - N/A   Clear
6:53 AM 30.9 °F - 30.0 °F 96% 30.34 in 10.0 mi Calm Calm - N/A   Clear
7:53 AM 37.9 °F 33.5 °F 30.0 °F 73% 30.36 in 10.0 mi NNE 5.8 mph - N/A   Clear
8:53 AM 44.1 °F 39.5 °F 26.1 °F 49% 30.39 in 10.0 mi NE 8.1 mph - N/A   Clear
9:53 AM 48.9 °F - 23.0 °F 36% 30.41 in 10.0 mi NE 11.5 mph - N/A   Clear
10:53 AM 51.1 °F - 21.0 °F 31% 30.42 in 10.0 mi NNE 10.4 mph - N/A   Clear
11:53 AM 52.0 °F - 19.9 °F 28% 30.40 in 10.0 mi East 8.1 mph - N/A   Clear
12:53 PM 54.0 °F - 19.9 °F 26% 30.37 in 10.0 mi ENE 6.9 mph - N/A   Clear
1:53 PM 55.0 °F - 19.9 °F 25% 30.37 in 10.0 mi Variable 5.8 mph - N/A   Clear
2:53 PM 57.0 °F - 21.9 °F 26% 30.36 in 10.0 mi Variable 5.8 mph - N/A   Clear
3:53 PM 55.9 °F - 23.0 °F 28% 30.37 in 10.0 mi NNE 9.2 mph - N/A   Clear
4:53 PM 52.0 °F - 23.0 °F 32% 30.39 in 10.0 mi NNE 8.1 mph - N/A   Scattered Clouds
5:53 PM 48.9 °F - 24.1 °F 38% 30.42 in 10.0 mi NNE 8.1 mph - N/A   Overcast
6:53 PM 46.9 °F - 23.0 °F 39% 30.45 in 10.0 mi North 8.1 mph - N/A   Overcast
7:53 PM 46.0 °F 39.9 °F 23.0 °F 40% 30.46 in 10.0 mi NNE 13.8 mph - N/A   Overcast
8:53 PM 45.0 °F 39.3 °F 19.9 °F 37% 30.49 in 10.0 mi NNE 11.5 mph 20.7 mph N/A   Overcast
9:53 PM 43.0 °F 35.7 °F 19.0 °F 38% 30.52 in 10.0 mi North 15.0 mph 24.2 mph N/A   Overcast
10:53 PM 41.0 °F 33.1 °F 19.9 °F 43% 30.54 in 10.0 mi North 15.0 mph 29.9 mph N/A   Overcast
11:53 PM 37.9 °F 28.2 °F 19.9 °F 48% 30.56 in 10.0 mi North 18.4 mph 24.2 mph N/A   Overcast